Tracking 35331 objects as of 15-Sep-2026
HD Live streaming from Space Station
objects crossing your sky now

STARLINK-3989

Track STARLINK-3989 now!
10-day predictions
STARLINK-3989 is classified as:


NORAD ID: 52630
Int'l Code: 2022-052AJ
Launch date: May 14, 2022
Source: United States (US)
Launch site: AIR FORCE EASTERN TEST RANGE (AFETR)
Your satellite tracking list
Your tracking list is empty




NASA's NSSDC Master Catalog

Two Line Element Set (TLE):
1 52630U 22052AJ  26257.65023745  .00000082  00000-0  14412-4 0  9997
2 52630  53.1586 127.0119 0001307  93.4426 266.6725 15.31717171239705
Source of the keplerian elements: AFSPC